• In Austria
  • List of Countries
  • For 7 days
  • Water Temperature
  • Satellite Maps
  • Weather Map
  • News
  • Weather Widgets
  • user-avatar
    Login

    Hourly Weather Ganja

    Today, 21 October, Sunday

    Time Temperature Precipitation Wind Pressure Humidity
    00:00 +17°C° 0 mm 0 mps 726 mmHg 68%
    01:00 +16°C° 0 mm 0 mps 726 mmHg 69%
    02:00 +16°C° 0 mm 0 mps 726 mmHg 69%
    03:00 +16°C° 0 mm 0 mps 725 mmHg 70%
    04:00 +18°C° 0 mm 1 mps 726 mmHg 69%
    05:00 +16°C° 0 mm 1 mps 726 mmHg 68%
    06:00 +16°C° 0 mm 1 mps 726 mmHg 68%
    07:00 +19°C° 0 mm 1 mps 726 mmHg 62%
    08:00 +20°C° 0 mm 1 mps 726 mmHg 56%
    09:00 +22°C° 0 mm 1 mps 726 mmHg 52%
    10:00 +23°C° 0 mm 1 mps 726 mmHg 48%
    11:00 +23°C° 0 mm 1 mps 726 mmHg 45%
    12:00 +24°C° 0 mm 1 mps 726 mmHg 41%
    13:00 +25°C° 0 mm 2 mps 725 mmHg 41%
    14:00 +25°C° 0 mm 2 mps 725 mmHg 40%
    15:00 +25°C° 0 mm 2 mps 725 mmHg 40%
    16:00 +24°C° 0 mm 2 mps 725 mmHg 44%
    17:00 +23°C° 0 mm 1 mps 725 mmHg 48%
    18:00 +22°C° 0 mm 1 mps 725 mmHg 52%
    19:00 +21°C° 0 mm 1 mps 726 mmHg 53%
    20:00 +21°C° 0 mm 1 mps 726 mmHg 53%
    21:00 +21°C° 0 mm 1 mps 726 mmHg 54%
    22:00 +20°C° 0 mm 1 mps 726 mmHg 56%
    23:00 +20°C° 0 mm 1 mps 726 mmHg 57%

    Tomorrow, 22 October, Monday

    Time Temperature Precipitation Wind Pressure Humidity
    00:00 +19°C° 0 mm 1 mps 726 mmHg 59%
    01:00 +17°C° 0 mm 0 mps 726 mmHg 60%
    02:00 +16°C° 0 mm 0 mps 726 mmHg 62%
    03:00 +16°C° 0 mm 0 mps 726 mmHg 63%
    04:00 +16°C° 0 mm 0 mps 726 mmHg 63%
    05:00 +15°C° 0 mm 0 mps 726 mmHg 63%
    06:00 +15°C° 0 mm 0 mps 726 mmHg 63%
    07:00 +18°C° 0 mm 1 mps 726 mmHg 59%
    08:00 +20°C° 0 mm 1 mps 726 mmHg 56%
    09:00 +21°C° 0 mm 1 mps 726 mmHg 52%
    10:00 +20°C° 0 mm 2 mps 726 mmHg 50%
    11:00 +21°C° 0 mm 2 mps 726 mmHg 49%
    12:00 +21°C° 0 mm 3 mps 726 mmHg 47%
    13:00 +21°C° 0 mm 3 mps 726 mmHg 46%
    14:00 +22°C° 0 mm 3 mps 726 mmHg 46%
    15:00 +23°C° 0 mm 2 mps 726 mmHg 45%
    16:00 +21°C° 0 mm 2 mps 726 mmHg 49%
    17:00 +20°C° 0 mm 2 mps 726 mmHg 54%
    18:00 +19°C° 0 mm 2 mps 726 mmHg 58%
    19:00 +18°C° 0 mm 2 mps 726 mmHg 59%
    20:00 +18°C° 0 mm 2 mps 727 mmHg 59%
    21:00 +18°C° 0 mm 2 mps 727 mmHg 60%
    22:00 +18°C° 0 mm 2 mps 727 mmHg 60%
    23:00 +17°C° 0 mm 2 mps 727 mmHg 61%

    Day after tomorrow, 23 October, Tuesday

    Time Temperature Precipitation Wind Pressure Humidity
    00:00 +17°C° 0 mm 2 mps 727 mmHg 61%
    01:00 +17°C° 0 mm 2 mps 727 mmHg 61%
    02:00 +16°C° 0 mm 2 mps 727 mmHg 61%
    03:00 +16°C° 0 mm 2 mps 727 mmHg 61%
    04:00 +16°C° 0 mm 2 mps 726 mmHg 61%
    05:00 +16°C° 0 mm 2 mps 726 mmHg 61%
    06:00 +16°C° 0 mm 2 mps 726 mmHg 62%
    07:00 +17°C° 0 mm 2 mps 726 mmHg 57%
    08:00 +19°C° 0 mm 2 mps 726 mmHg 52%
    09:00 +20°C° 0 mm 2 mps 727 mmHg 48%
    10:00 +21°C° 0 mm 2 mps 726 mmHg 46%
    11:00 +23°C° 0 mm 2 mps 726 mmHg 43%
    12:00 +24°C° 0 mm 2 mps 725 mmHg 41%
    13:00 +24°C° 0 mm 2 mps 725 mmHg 41%
    14:00 +24°C° 0 mm 2 mps 725 mmHg 40%
    15:00 +24°C° 0 mm 1 mps 724 mmHg 40%
    16:00 +23°C° 0 mm 1 mps 724 mmHg 44%
    17:00 +22°C° 0 mm 1 mps 724 mmHg 49%
    18:00 +21°C° 0 mm 1 mps 724 mmHg 53%
    19:00 +20°C° 0 mm 1 mps 725 mmHg 53%
    20:00 +20°C° 0 mm 1 mps 725 mmHg 54%
    21:00 +19°C° 0 mm 1 mps 725 mmHg 54%
    22:00 +19°C° 0 mm 1 mps 725 mmHg 54%
    23:00 +19°C° 0 mm 1 mps 725 mmHg 54%

    24 October, Wednesday

    Time Temperature Precipitation Wind Pressure Humidity
    00:00 +18°C° 0 mm 1 mps 725 mmHg 54%
    01:00 +18°C° 0 mm 1 mps 724 mmHg 55%
    02:00 +17°C° 0 mm 2 mps 724 mmHg 55%
    03:00 +16°C° 0 mm 2 mps 724 mmHg 56%
    04:00 +16°C° 0 mm 2 mps 724 mmHg 56%
    05:00 +16°C° 0 mm 2 mps 723 mmHg 57%
    06:00 +16°C° 0 mm 2 mps 723 mmHg 57%
    07:00 +17°C° 0 mm 2 mps 723 mmHg 53%
    08:00 +19°C° 0 mm 2 mps 723 mmHg 48%
    09:00 +20°C° 0 mm 2 mps 723 mmHg 44%
    10:00 +23°C° 0 mm 2 mps 723 mmHg 41%
    11:00 +24°C° 0 mm 3 mps 722 mmHg 39%
    12:00 +25°C° 0 mm 3 mps 722 mmHg 36%
    13:00 +25°C° 0 mm 3 mps 721 mmHg 35%
    14:00 +25°C° 0 mm 3 mps 721 mmHg 35%
    15:00 +25°C° 0 mm 2 mps 720 mmHg 34%
    16:00 +24°C° 0 mm 2 mps 720 mmHg 38%
    17:00 +21°C° 0 mm 2 mps 720 mmHg 41%
    18:00 +21°C° 0 mm 1 mps 720 mmHg 44%
    19:00 +21°C° 0 mm 1 mps 720 mmHg 45%
    20:00 +20°C° 0 mm 2 mps 720 mmHg 46%
    21:00 +19°C° 0 mm 2 mps 720 mmHg 46%
    22:00 +19°C° 0 mm 2 mps 720 mmHg 48%
    23:00 +19°C° 0 mm 2 mps 719 mmHg 49%

    25 October, Thursday

    Time Temperature Precipitation Wind Pressure Humidity
    00:00 +18°C° 0 mm 2 mps 719 mmHg 51%
    01:00 +18°C° 0 mm 2 mps 719 mmHg 52%
    02:00 +17°C° 0 mm 3 mps 719 mmHg 53%
    03:00 +17°C° 0 mm 3 mps 718 mmHg 55%
    04:00 +17°C° 0 mm 3 mps 718 mmHg 55%
    05:00 +17°C° 0 mm 3 mps 718 mmHg 56%
    06:00 +17°C° 0 mm 3 mps 718 mmHg 57%
    07:00 +18°C° 0 mm 3 mps 718 mmHg 51%
    08:00 +20°C° 0 mm 3 mps 717 mmHg 46%
    09:00 +22°C° 0 mm 3 mps 717 mmHg 40%
    10:00 +24°C° 0 mm 3 mps 717 mmHg 37%
    11:00 +25°C° 0 mm 4 mps 716 mmHg 34%
    12:00 +26°C° 0 mm 5 mps 716 mmHg 31%
    13:00 +26°C° 0 mm 4 mps 715 mmHg 31%
    14:00 +27°C° 0 mm 4 mps 715 mmHg 31%
    15:00 +27°C° 0 mm 4 mps 714 mmHg 30%
    16:00 +26°C° 0.1 mm 3 mps 714 mmHg 34%
    17:00 +24°C° 0.1 mm 3 mps 714 mmHg 38%
    18:00 +23°C° 0.1 mm 2 mps 714 mmHg 42%
    19:00 +23°C° 0 mm 2 mps 714 mmHg 44%
    20:00 +21°C° 0 mm 3 mps 714 mmHg 47%
    21:00 +20°C° 0 mm 3 mps 715 mmHg 50%
    22:00 +20°C° 0 mm 3 mps 715 mmHg 51%
    23:00 +19°C° 0 mm 2 mps 715 mmHg 52%

    26 October, Friday

    Time Temperature Precipitation Wind Pressure Humidity
    00:00 +18°C° 0 mm 2 mps 715 mmHg 53%
    01:00 +18°C° 0 mm 2 mps 715 mmHg 55%
    02:00 +18°C° 0 mm 3 mps 715 mmHg 57%
    03:00 +17°C° 0 mm 4 mps 716 mmHg 59%
    04:00 +17°C° 0 mm 4 mps 716 mmHg 61%
    05:00 +15°C° 0 mm 4 mps 716 mmHg 63%
    06:00 +14°C° 0 mm 4 mps 717 mmHg 66%
    07:00 +15°C° 0 mm 4 mps 717 mmHg 61%
    08:00 +17°C° 0 mm 4 mps 718 mmHg 56%
    09:00 +17°C° 0 mm 4 mps 718 mmHg 52%
    10:00 +16°C° 0.1 mm 5 mps 718 mmHg 51%
    11:00 +17°C° 0.1 mm 5 mps 718 mmHg 51%
    12:00 +17°C° 0.1 mm 6 mps 718 mmHg 50%
    13:00 +15°C° 1.2 mm 5 mps 718 mmHg 57%
    14:00 +13°C° 1.2 mm 5 mps 718 mmHg 64%
    15:00 +12°C° 1.2 mm 5 mps 718 mmHg 70%
    16:00 +10°C° 1.9 mm 6 mps 719 mmHg 71%
    17:00 +10°C° 1.9 mm 6 mps 720 mmHg 71%
    18:00 +10°C° 1.9 mm 6 mps 721 mmHg 71%
    19:00 +10°C° 1.7 mm 6 mps 722 mmHg 69%
    20:00 +10°C° 1.7 mm 6 mps 722 mmHg 66%
    21:00 +10°C° 1.7 mm 6 mps 723 mmHg 63%
    22:00 +10°C° 0.2 mm 6 mps 724 mmHg 62%
    23:00 +10°C° 0.2 mm 6 mps 725 mmHg 61%
    Show more